Location: Eenumerhoogte
(53.3420°N, 6.7843°E)
Time: 20:53:10
(UTC+00:00)

COSMOS 2428 - Pass Details

Date: 15 May 2026
Orbit: 844 x 855 km, 70.9° (Epoch: 10 June)

Event Time Altitude Azimuth Distance (km) Brightness Sun altitude
Rises 21:04:24 0° 327° (NNW) 3,428 8.1 -11.2°
Reaches altitude 10° 21:07:02 10° 335° (NNW) 2,488 6.6 -11.4°
Maximum altitude 21:12:24 40° 45° (NE) 1,232 3.7 -11.8°
Enters shadow 21:17:35 11° 114° (ESE) 2,418 4.6 -12.3°
